Weather observations for the past three days for
Detroit, Detroit Metropolitan Wayne County Airport
Imperial (Metric)
Date Time (edt) Wind (mph) Vis. (mi.) Weather Sky Cond. Temperature (ºF) Relative Humidity Wind Chill (°F) Heat Index (°F) Pressure Precipitation (in)
Air Dwpt 6 hour altimeter (in) sea level (mb) 1 hr 3 hr 6 hr
Max. Min.
16 22:53 SE 6 10.00 A Few Clouds FEW100 71.1 59 66% 29.96 1014.1
16 21:53 S 7 10.00 Partly Cloudy FEW100 SCT220 72 57 59% 29.96 1014.3
16 20:53 S 10 10.00 Partly Cloudy SCT220 73.9 55 52% 29.97 1014.5
16 19:53 S 8 10.00 Mostly Cloudy BKN220 79 53.1 84 79 41% 79 29.96 1014.3
16 18:53 S 12 10.00 Partly Cloudy FEW200 SCT220 82 50 33% 81 29.97 1014.4
16 17:53 SE 10 10.00 Partly Cloudy SCT220 82.9 50 32% 81 29.97 1014.4
16 16:53 S 14 10.00 Partly Cloudy SCT220 82.9 52 34% 82 29.99 1015.3
16 15:53 S 9 10.00 Partly Cloudy FEW120 SCT240 82.9 54 37% 82 30.02 1016.2
16 14:53 S 14 G 20 10.00 Partly Cloudy FEW150 SCT250 82 53.1 37% 81 30.04 1016.8
16 13:53 SE 9 G 18 10.00 Partly Cloudy SCT250 81 52 81 62.1 37% 80 30.05 1017.4
16 12:53 SE 9 G 16 10.00 Partly Cloudy SCT250 79 54 42% 79 30.08 1018.2
16 11:53 S 7 10.00 Partly Cloudy FEW180 SCT240 77 55.9 48% 79 30.09 1018.5
16 10:53 S 8 10.00 Partly Cloudy FEW150 SCT240 75 55 50% 78 30.11 1019.3
16 09:53 SE 10 10.00 Mostly Cloudy SCT140 BKN240 72 57.9 61% 30.12 1019.5
16 08:53 E 6 10.00 Mostly Cloudy FEW070 SCT140 BKN220 66.9 57.9 73% 30.13 1019.9
16 07:53 E 3 10.00 Overcast FEW070 BKN130 OVC220 62.1 53.1 63 59 73% 30.12 1019.8
16 06:53 E 5 10.00 Overcast BKN130 OVC220 59 48.9 69% 30.12 1019.8
16 05:53 NE 3 10.00 Overcast BKN140 OVC210 59 48 67% 30.13 1019.9
16 04:53 E 3 9.00 Overcast BKN140 OVC210 60.1 46.9 62% 30.13 1019.9
16 03:53 E 5 10.00 Overcast FEW070 BKN150 OVC210 61 46 58% 30.13 1020.1
16 02:53 E 6 10.00 Overcast FEW070 BKN150 OVC220 63 46.9 56% 30.14 1020.3
16 01:53 E 5 10.00 Overcast FEW070 BKN150 OVC220 63 48 73.9 63 58% 30.14 1020.2
16 00:53 E 6 10.00 Overcast FEW075 BKN170 OVC230 64 48.9 58% 30.13 1019.9
15 23:53 E 5 10.00 Mostly Cloudy FEW180 BKN230 64.9 48.9 56% 30.14 1020.4
15 22:53 E 6 10.00 Mostly Cloudy FEW180 BKN230 66 48 52% 30.14 1020.5
15 21:53 E 6 10.00 Mostly Cloudy BKN200 69.1 45 42% 30.14 1020.5
15 20:53 E 7 10.00 Mostly Cloudy BKN170 BKN250 71.1 46 41% 30.14 1020.3
15 19:53 E 8 10.00 Mostly Cloudy SCT180 BKN250 73.9 48.9 79 73.9 41% 30.14 1020.2
15 18:53 E 7 10.00 Mostly Cloudy FEW070 FEW180 BKN250 75 51.1 43% 78 30.14 1020.6
15 17:53 E 7 10.00 Mostly Cloudy FEW070 FEW180 BKN250 77 52 42% 78 30.15 1020.6
15 16:53 Vrbl 5 10.00 Mostly Cloudy FEW065 BKN230 78.1 50 37% 79 30.15 1020.8
15 15:53 Calm 10.00 Mostly Cloudy FEW060 SCT160 BKN240 77 48 36% 78 30.16 1021.1
15 14:53 NW 6 10.00 Mostly Cloudy FEW160 BKN240 79 51.1 38% 79 30.17 1021.3
15 13:53 Vrbl 5 10.00 Mostly Cloudy SCT160 BKN250 75.9 48.9 77 62.1 39% 78 30.18 1021.7
15 12:53 Calm 10.00 Mostly Cloudy FEW085 SCT150 BKN220 75 51.1 43% 78 30.2 1022.3
15 11:53 N 7 10.00 Mostly Cloudy FEW085 BKN210 73 51.1 46% 30.2 1022.5
15 10:53 Calm 10.00 Partly Cloudy FEW085 SCT220 71.1 51.1 49% 30.2 1022.5
15 09:53 NE 5 10.00 Partly Cloudy FEW085 SCT220 69.1 50 51% 30.21 1022.9
15 08:53 NE 7 10.00 Partly Cloudy FEW090 SCT200 SCT250 66 48.9 54% 30.22 1023.1
15 07:53 N 5 10.00 Partly Cloudy FEW045 SCT230 62.1 50 62.1 55 65% 30.21 1022.6
15 06:53 NE 3 10.00 Partly Cloudy FEW045 SCT230 57 48 72% 30.17 1021.4
15 05:53 Calm 10.00 Partly Cloudy FEW035 SCT230 55.9 46.9 72% 30.14 1020.4
15 04:53 Calm 10.00 Partly Cloudy SCT230 57 48.9 74% 30.13 1020.1
15 03:53 Calm 10.00 Partly Cloudy SCT230 57 48 72% 30.12 1019.6
15 02:53 Calm 10.00 Fair CLR 59 46 62% 30.11 1019.3
15 01:53 Calm 10.00 Fair CLR 61 46 75 61 58% 30.11 1019.2
15 00:53 Calm 10.00 A Few Clouds FEW230 61 46 58% 30.1 1018.9
14 23:53 E 3 10.00 Fair CLR 64 46.9 54% 30.09 1018.5
14 22:53 E 7 10.00 Fair CLR 66 50 56% 30.08 1018.2
14 21:53 E 7 10.00 A Few Clouds FEW080 68 51.1 55% 30.06 1017.7
14 20:53 E 6 10.00 A Few Clouds FEW080 71.1 53.1 53% 30.04 1016.9
14 19:53 E 8 10.00 Partly Cloudy SCT080 73.9 54 82.9 73.9 50% 30.02 1016.2
14 18:53 NE 12 10.00 Partly Cloudy SCT080 75.9 55.9 50% 78 30 1015.6
14 17:53 E 12 10.00 Mostly Cloudy FEW070 BKN100 75.9 55.9 50% 78 29.99 1015.3
14 16:53 NE 9 10.00 Mostly Cloudy FEW070 BKN100 81 53.1 38% 80 29.98 1014.6
14 15:53 N 12 10.00 Mostly Cloudy FEW065 SCT100 BKN250 82.9 54 37% 82 29.97 1014.4
14 14:53 N 7 10.00 Mostly Cloudy BKN065 BKN250 82 54 38% 81 29.97 1014.4
14 13:53 N 9 10.00 Partly Cloudy SCT060 SCT250 81 54 81 70 39% 81 29.97 1014.3
14 12:53 NW 7 10.00 A Few Clouds FEW065 FEW250 81 55 41% 81 29.97 1014.5
14 11:53 Vrbl 5 10.00 A Few Clouds FEW250 79 52 39% 79 29.97 1014.5
14 10:53 Calm 10.00 Partly Cloudy FEW080 SCT220 75.9 52 43% 78 29.96 1014.2
14 09:53 E 7 10.00 Mostly Cloudy FEW050 SCT100 BKN220 75 52 45% 78 29.96 1014.1
14 08:53 NE 7 10.00 Mostly Cloudy FEW045 SCT110 BKN220 73 53.1 50% 29.95 1013.7
14 07:53 N 7 9.00 Partly Cloudy FEW045 FEW110 SCT220 70 57 70 66 64% 29.94 1013.3
14 06:53 NE 6 10.00 Partly Cloudy FEW045 SCT110 SCT220 66.9 57 71% 29.92 1012.6
14 05:53 NE 6 10.00 Partly Cloudy FEW045 SCT110 SCT180 66.9 62.1 84% 29.91 1012.3
14 04:53 N 6 10.00 Mostly Cloudy FEW055 SCT100 BKN180 68 63 84% 29.88 1011.4
14 03:53 N 3 10.00 Mostly Cloudy SCT055 BKN090 BKN170 69.1 64 84% 29.87 1011.0
14 02:53 W 5 10.00 Overcast SCT044 BKN055 OVC150 69.1 64 84% 29.87 1011.0
14 01:53 W 5 10.00 Mostly Cloudy FEW055 BKN130 BKN240 68 63 79 68 84% 29.88 1011.3
14 00:53 W 5 9.00 Mostly Cloudy FEW055 BKN130 BKN240 68 63 84% 29.87 1010.9
13 23:53 SW 8 10.00 A Few Clouds FEW150 69.1 63 81% 29.86 1010.8
Date Time (edt) Wind (mph) Vis. (mi.) Weather Sky Cond. Air Dwpt Max. Min. Relative Humidity Wind Chill (°F) Heat Index (°F) altimeter (in) sea level (mb) 1 hr 3 hr 6 hr
6 hour
Temperature (ºF) Pressure Precipitation (in)